Torna al catalogo

STARLINK-31484

AttivoComunicazioniVLEO
NORAD 59005·PAYLOAD·🇺🇸 United States

Lanciato Feb 23, 2024 da Vandenberg Space Force Base

Loading…

Prossimi Passaggi (prossime 24 ore)

TLE

AggiornatoSource: CelesTrak SupGP

Epoca: Sep 14, 2026, 21:22 UTC

1 59005C 24036H   26257.89076389  .00046009  00000+0  13593-2 0  2574
2 59005  53.1571 277.7084 0001272  79.8911 270.0574 15.34368405    10

Traccia STARLINK-31484 in tempo reale con AllMySat

Download on the App Store